Погода в Барано-Оренбургском

Россия / Приморский край     44°22′09″N   131°27′02″E
темп.,
°C
ветер,
м/с
пор.,
м/с
влажн.,
%
обл.,
%
осадки,
мм/ч
давл.,
гПа
погр.,
м
10 мая, пн
пн1001:00+7зсз3888100 0.1 1006340
04:00+6зсз398849 0.3 1008359
07:00+7зсз3787100 0.0 1010361
10:00+8сз3782100 0.0 1011767
13:00+9зсз4676100 0.0 1012901
16:00+8сз2585100 0.5 1012985
19:00+8с2489100 0.6 1013460
22:00+6ссз2292100 0.6 101546
11 мая, вт
вт1101:00+6зсз1288100 0.0 101584
04:00+5зсз229025 0.0 101622
07:00+6сз128642 0.0 101747
10:00+10всв117063 0.0 1018855
13:00+12вюв216375 0.2 10171126
16:00+15юв225139 0.2 10161458
19:00+14юв45582 0.0 1016775
22:00+8ююв3886100 0.0 1018243
12 мая, ср
ср1201:00+6ю41093100 0.0 1018353
04:00+5ю51293100 0.0 1017517
07:00+6ю61388100 0.0 1017631
10:00+8ю81480100 0.0 1015829
13:00+11ю91571100 0.0 1013978
16:00+11ю81381100 1.2 10121046
19:00+8ю61396100 5.9 1013753
22:00+8ю5119420 6.3 1014482
13 мая, чт
чт1301:00+7ю4109611 0.0 1013276
04:00+6ю369835 0.0 1014144
07:00+6ююз359832 0.0 1014143
10:00+13ю45775 0.0 1013396
13:00+20ю46476 0.0 10121324
16:00+19ююв565141 0.0 1010736
19:00+15ююв4974100 0.0 1010304
22:00+10ю2485100 0.0 101196
14 мая, пт
пт1401:00+10ю22865 0.0 101236
04:00+8ю22915 0.0 101139
07:00+8ю238824 0.0 101188
10:00+14ю3558100 0.0 1009390
13:00+19ю5849100 0.0 10061061
16:00+21ю71058100 0.0 10031367
19:00+11ююв51097100 3.9 1005311
22:00+10ююв51297100 5.6 1004332